www.pogodaiklimat.ru

Погода и климат >> Архив погоды >> Индия >> Guwahati


ПОГОДА в Guwahati

  • Прогноз погоды в Guwahati
  • Монитор погоды в Guwahati
  • Климат города

АРХИВ ПОГОДЫ в Guwahati

Время (UTC), дата Ветер
(напр.,м/с)
 
Видим.   Явления Облачность Т
(С)
Тd
(С)
f
(%)
Тe
(С)
Тes
(С)
Комфортность P
(гПа)
Po
(гПа)
Тmin
(С)
Tmax
(С)
R
(мм)
R24
(мм)
S
(см)
21 10.10 штиль 0 50 км дымка ?/? +25.2 +23.4 90 +34 +34 очень
душно
1011.7 1012.0
00 11.10 штиль 0 2000 м дымка 10/5 480 м
[Cb calv Ac trans]
+23.5 +20 +20 1011.6 1012.0
03 11.10 штиль 0 2000 м дымка 10/5 300 м
[Frnb Ac trans]
+25.4 +23.3 88 +34 +36 очень
душно
1013.7 1014.0 +23.5
06 11.10 штиль 0 4000 м мгла 9/5 480 м
[Sc Ac trans]
+28.4 +21.5 66 +36 +41 очень
душно
1013.3 1013.0
09 11.10 Ю 2 4000 м в посл. час дождь 9/5 540 м
[Sc Ac trans]
+28.0 +23.3 76 +38 +40 очень
душно
1011.2 1011.0 0.0
12 11.10 Ю 3 2000 м слабый дождь 10/5 540 м
[Cb calv As op]
+23.6 +23.3 98 +32 +32 очень
душно
1012.7 1013.0 +30.4 1
15 11.10 штиль 0 2000 м слабый дождь 10/5 300 м
[Cb calv As op]
+23.4 +22.5 95 +32 +32 очень
душно
1014.9 1015.0 3
18 11.10 штиль 0 2000 м слабый дождь 10/6 300 м
[Cb calv As op]
+23.2 +22.6 96 +32 +32 очень
душно
1014.8 1015.0 3
21 11.10 штиль 0 2000 м слабый дождь 10/6 300 м
[Cb calv As op]
+22.6 +22.3 98 +30 +30 очень
душно
1014.4 1014.0 4
00 12.10 штиль 0 2000 м слабый дождь 10/6 300 м
[Cb calv As op]
+23.2 +22.6 96 +32 +32 очень
душно
1013.3 1013.0 6
03 12.10 штиль 0 2000 м слабый дождь 10/5 300 м
[Cb calv As op]
+24.4 +23.5 95 +33 +34 очень
душно
1014.8 1015.0 +21.6 6
06 12.10 штиль 0 4000 м слабый дождь 10/5 300 м
[St As op]
+26.0 +23.1 84 +35 +37 очень
душно
1014.1 1014.0 0.1
09 12.10 штиль 0 4000 м слабый дождь 10/5 300 м
[St As op]
+26.6 +24.0 86 +37 +38 очень
душно
1012.1 1012.0 0.1
12 12.10 штиль 0 2000 м дымка {дождь} 10/5 480 м
[Frnb Ac trans]
+25.4 +23.3 88 +34 +34 очень
душно
1011.5 1012.0 +27.0 0.1
15 12.10 штиль 0 2000 м слабый дождь 10/5 300 м
[Cb calv As op]
+25.0 +23.5 91 +34 +34 очень
душно
1013.1 1013.0 0.1
18 12.10 штиль 0 2000 м дымка {дождь} 10/5 300 м
[St As op]
+24.6 +23.4 93 +33 +33 очень
душно
1013.5 1014.0 0.1
21 12.10 штиль 0 2000 м дымка 10/5 300 м
[Frnb Ac trans]
+24.0 +23.1 95 +32 +32 очень
душно
1013.2 1013.0 0.1
00 13.10 штиль 0 1000 м дымка 10/5 300 м
[Frnb Ac trans]
+23.6 +23.3 98 +32 +32 очень
душно
1011.4 1011.0 0.1
03 13.10 штиль 0 2000 м дымка 8/4 300 м
[Frnb Ac trans]
+26.6 +23.4 83 +36 +40 очень
душно
1013.3 1013.0 +22.3 0.1
06 13.10 З 2 4000 м дымка 8/4 540 м
[Cb calv Ac trans]
+29.0 +24.1 75 +40 +46 очень
душно
1011.6 1012.0
09 13.10 ЮЗ 3 4000 м дымка 9/4 540 м
[Sc Ac trans]
+27.6 +24.1 81 +38 +40 очень
душно
1009.6 1010.0
12 13.10 штиль 0 4000 м дымка 8/4 540 м
[Sc Ac trans]
+26.2 +23.9 87 +36 +36 очень
душно
1009.2 1009.0 +30.0
15 13.10 штиль 0 2000 м дымка 6/3 540 м
[Sc Ac trans]
+25.0 +23.6 92 +34 +34 очень
душно
1011.1 1011.0
18 13.10 штиль 0 2000 м дымка 8/4 540 м
[St Ac trans]
+24.4 +23.2 93 +33 +33 очень
душно
1011.7 1012.0
21 13.10 штиль 0 2000 м дымка 8/4 540 м
[Sc Ac trans]
+23.8 +22.9 95 +32 +32 очень
душно
1011.2 1011.0
00 14.10 штиль 0 2000 м дымка 9/4 540 м
[Sc Ac trans]
+21.6 +21.0 96 +27 +27 душно 1010.9 1011.0
03 14.10 З 2 2000 м дымка 8/4 540 м
[Sc Ac trans]
+25.0 +22.0 83 +32 +35 очень
душно
1012.6 1013.0 +20.7
06 14.10 З 2 4000 м мгла 9/4 540 м
[Sc Ac trans]
+28.6 +22.7 70 +38 +42 очень
душно
1012.0 1012.0
09 14.10 штиль 0 4000 м мгла 4/3 600 м
[Sc Ac trans]
+30.4 +22.5 63 +40 +45 очень
душно
1009.5 1010.0
12 14.10 штиль 0 4000 м мгла 4/3 600 м
[Sc Ac trans]
+28.2 +22.9 73 +38 +38 очень
душно
1009.8 1010.0 +31.1
15 14.10 штиль 0 2000 м дымка 5/3 540 м
[Sc Ac trans]
+24.6 +23.1 91 +33 +33 очень
душно
1011.2 1011.0
18 14.10 штиль 0 2000 м дымка 5/3 540 м
[Sc Ac trans]
+23.0 +22.4 96 +31 +31 очень
душно
1011.2 1011.0
21 14.10 штиль 0 2000 м дымка 8/4 540 м
[Sc Ac trans]
+21.6 +21.3 98 +28 +28 очень
душно
1010.6 1011.0
00 15.10 штиль 0 2000 м дымка 8/4 540 м
[Sc Ac trans]
+21.4 +20.5 95 +27 +27 душно 1012.4 1012.0
03 15.10 штиль 0 4000 м дымка 8/4 300 м
[Frnb Ac trans]
+26.8 +22.4 77 +35 +39 очень
душно
1014.5 1015.0 +20.4
06 15.10 штиль 0 4000 м мгла 4/3 600 м
[Sc Ac trans]
+30.0 +22.7 65 +40 +52 опасность
солнечного
удара
1013.3 1013.0
09 15.10 штиль 0 4000 м мгла 5/3 600 м
[Sc Ac trans]
+31.4 +21.0 54 +39 +44 очень
душно
1010.6 1011.0
12 15.10 штиль 0 4000 м мгла 8/4 540 м
[Cb calv Ac trans]
+27.8 +22.5 73 +37 +37 очень
душно
1011.3 1011.0 +31.9
15 15.10 Ю 2 2000 м дымка {дождь} 8/4 540 м
[Sc Ac trans]
+24.6 +22.2 87 +32 +32 очень
душно
1013.5 1014.0 0.2
18 15.10 штиль 0 2000 м дымка 8/4 540 м
[Sc Ac trans]
+22.8 +21.6 93 +30 +30 очень
душно
1014.0 1014.0 0.2
21 15.10 штиль 0 2000 м дымка 9/4 540 м
[Sc Ac trans]
+21.6 +21.0 96 +27 +27 душно 1013.7 1014.0 0.2
00 16.10 штиль 0 2000 м дымка 8/4 540 м
[Sc Ac trans]
+20.6 +20.0 96 +25 +25 комфорт 1013.8 1014.0 0.2
03 16.10 штиль 0 2000 м мгла 4/1 600 м
[Sc Ac trans]
+25.2 +20.3 74 +31 +38 очень
душно
1016.0 1016.0 +19.6 0.2
06 16.10 С 3 4000 м мгла 4/3 600 м
[Sc Ac trans]
+29.4 +22.0 64 +38 +45 очень
душно
1013.6 1014.0
09 16.10 штиль 0 4000 м мгла 8/4 600 м
[Sc Ac trans]
+29.4 +21.0 61 +37 +40 очень
душно
1011.2 1011.0
12 16.10 штиль 0 4000 м мгла 8/4 600 м
[Sc Ac trans]
+28.0 +22.1 70 +36 +36 очень
душно
1011.6 1012.0 +30.8
15 16.10 штиль 0 2000 м дымка 8/4 540 м
[Sc Ac trans]
+25.6 +23.3 87 +34 +34 очень
душно
1013.3 1013.0
18 16.10 штиль 0 2000 м дымка 8/4 540 м
[Sc Ac trans]
+25.0 +23.2 90 +33 +33 очень
душно
1014.0 1014.0
21 16.10 штиль 0 2000 м дымка 8/4 540 м
[Sc Ac trans]
+24.0 +22.8 93 +32 +32 очень
душно
1013.6 1014.0
00 17.10 штиль 0 2000 м дымка 8/4 300 м
[Frnb Ac trans]
+21.0 +20.4 96 +26 +26 душно 1013.2 1013.0
03 17.10 штиль 0 1000 м дымка {туман} 5/3 540 м
[Sc Ac trans]
+24.6 +22.5 88 +32 +37 очень
душно
1014.7 1015.0 +20.0
06 17.10 С 2 2000 м мгла {туман} 5/3 540 м
[Sc Ac trans]
+30.0 +21.0 59 +38 +46 очень
душно
1011.8 1012.0
09 17.10 штиль 0 4000 м мгла 4/3 600 м
[Sc Ac trans]
+30.4 +20.8 57 +38 +43 очень
душно
1008.8 1009.0
12 17.10 штиль 0 2000 м мгла 4/3 600 м
[Sc Ac trans]
+28.0 +22.1 70 +36 +36 очень
душно
1008.9 1009.0 +30.9
15 17.10 Ю 2 2000 м дымка 6/3 540 м
[Sc Ac trans]
+25.0 +23.2 90 +33 +33 очень
душно
1010.9 1011.0
18 17.10 штиль 0 2000 м дымка 6/4 540 м
[Sc Ac trans]
+23.6 +22.4 93 +31 +31 очень
душно
1011.3 1011.0

 

Местоположение метеостанции Guwahati (Assam, Индия): широта 26.10 долгота 91.58 высота над уровнем моря 54 м.

В архиве по умолчанию представлена погода в Guwahati за последнюю неделю. Архивные данные за месяц целиком и за предыдущие месяцы, начиная с января 2011 года, Вы можете получить, выбрав интересующий диапазон дат из раскрывающегося списка и нажав кнопку "Ввод!".


*Определитесь, кто Вы:
робот инопланетянин человек

Внимание! Время в таблицах - всемирное. Для получения местного времени необходимо прибавить поправку, которая в Guwahati равна 5.5 ч.

Смотрите также архив погоды в соседних городах и на ближайших метеорологических станциях:

Погода в Rangia (Assam, Индия) (37 км)
Погода в Shillong Airport (Meghalaya, Индия) (59 км)
Погода в Shillong (Meghalaya, Индия) (66 км)
Погода в Tangla (Assam, Индия) (70 км)
Погода в Chaparmukh (Assam, Индия) (95 км)
Погода в Goalpara (Assam, Индия) (95 км)
Погода в Cherrapunji (Meghalaya, Индия) (96 км)
Погода в Mazbat (Assam, Индия) (105 км)
Погода в Tezpur (Assam, Индия) (133 км)
Погода в Sylhet (Бангладеш) (137 км)

Пояснения к столбцам:

Ветер - указаны скорость ветра в м/с - средняя за 10 мин, порывы в срок и между сроками (в фигурных скобках) и направление, откуда дует ветер: С - северный, СВ - северо-восточный, В - восточный, ЮВ - юго-восточный, Ю - южный, ЮЗ - юго-западный, З - западный, СЗ - северо-западный.
Видимость - горизонтальная дальность видимости в метрах или километрах. При видимости от 1 до 10 км при отсутствии осадков обычно наблюдается дымка, при ухудшении видимости до 1 км и менее - туман. В сухую погоду видимость может ухудшаться дымом, пылью или мглою.
Явления - указаны атмосферные явления, наблюдавшиеся в срок или в последний час перед сроком; фигурными скобками обозначены явления, наблюдавшиеся между сроками (за 1-3 часа до срока); квадратными скобками обозначены град или гололедные отложения с указанием их диаметра в мм.
Облачность - указаны через наклонную черту общая и нижняя облачность в баллах и высота нижней границы облаков в метрах; квадратными скобками обозначены формы облаков: Ci - перистые, Cs - перисто-слоистые, Cc - перисто-кучевые, Ac - высококучевые, As - высокослоистые, Sc - слоисто-кучевые, Ns - слоисто-дождевые, Cu - кучевые, Cb - кучево-дождевые. Подробнее классификацию облаков см. в Атласе облаков (PDF).
T - Температура воздуха - температура, измеренная на высоте 2 м над землей.
Td - Температура точки росы - температура, при понижении до которой содержащийся в воздухе водяной пар достигнет насыщения.
f - Относительная влажность воздуха - влажноcть воздуха, измеренная на высоте 2 м над землей.
Te - Эффективная температура - температура, которую ощущает одетый по сезону человек в тени. Характеристика душности погоды. При расчете учитывается влияние влажности воздуха и скорости ветра на теплоощущения человека.
Tes - Эффективная температура на солнце - температура, которую ощущает человек, с поправкой на солнечный нагрев. Характеристика знойности погоды. Зависит от высоты солнца над горизонтом, облачности и скорости ветра. Ночью, в пасмурную погоду, а также при ветре 12 м/с и более поправка равна нулю.
P - Атмосферное давление - приведенное к уровню моря атмосферное давление.
Po - Атмосферное давление - измеренное на уровне метеостанции атмосферное давление.
Tmin - Минимальная температура - минимум температуры воздуха на высоте 2 м над землей.
Tmax - Максимальная температура - максимум температуры воздуха на высоте 2 м над землей.
R - Количество осадков - Количество выпавших осадков за период времени, мм. При наведении курсора мыши на число - период времени, за который выпало указанное количество осадков.
R24 - Количество осадков - Количество выпавших осадков за 24 часа, мм.
S - Снежный покров - Высота снежного покрова, см. При наведении курсора мыши на число - состояние снежного покрова и степень покрытия местности в баллах.